West Memphis, AR

9:56 AM CST on December 14, 2019 (GMT -0600)
West Memphis Municipal

Weather History for KAWM - November, 2019

Change the Weather History Date:

Thursday, November 21, 2019

  Actual Average Record
Temperature  
Mean Temperature 54 °F -  
Max Temperature 59 °F 60 °F 76 °F (1966)
Min Temperature 50 °F 39 °F 16 °F (1981)
Degree Days  
Heating Degree Days 10    
Growing Degree Days 4 (Base 50)    
Moisture  
Dew Point 52 °F    
Average Humidity 90    
Maximum Humidity 100    
Minimum Humidity 59    
Precipitation  
Precipitation 0.32 in - - ()
Sea Level Pressure  
Sea Level Pressure 30.06 in    
Wind  
Wind Speed 11 mph (South)    
Max Wind Speed 17 mph    
Max Gust Speed -    
Visibility 7 miles    
Events Rain    
Averages and records for this station are not official NWS values.
T = Trace of Precipitation, MM = Missing Value Source: NWS Daily Summary

Daily Weather History Graph

Daily Weather History Graph

Search for Another Location

Airport or City:

Astronomy

Nov. 21, 2019 Rise Set
Actual Time 6:41 AM CST 4:51 PM CST
Civil Twilight 6:14 AM CST 5:19 PM CST
Nautical Twilight 5:43 AM CST 5:50 PM CST
Astronomical Twilight 5:12 AM CST 6:20 PM CST
Moon 12:54 AM CST (11/21) 2:05 PM CST (11/21)
Length of Visible Light 11h 05m
Length of Day
10h 10m
Waning Crescent, 29% of the Moon is Illuminated
Nov 21
Waning Crescent
Nov 26
New
Dec 4
First Quarter
Dec 11
Full
Dec 18
Last Quarter

Hourly Weather History & Observations

Time (CST) Temp. Dew Point Humidity Pressure Visibility Wind Dir Wind Speed Gust Speed Precip Events Conditions
12:53 AM 50.0 °F 39.9 °F 68% 30.10 in 10.0 mi SSE 9.2 mph - N/A   Clear
1:53 AM 52.0 °F 41.0 °F 66% 30.11 in 10.0 mi South 9.2 mph - N/A   Clear
2:53 AM 53.1 °F 41.0 °F 64% 30.11 in 10.0 mi South 10.4 mph - N/A   Clear
3:53 AM 55.0 °F 41.0 °F 59% 30.09 in 10.0 mi South 13.8 mph - N/A   Clear
5:53 AM 55.9 °F 43.0 °F 62% 30.11 in 10.0 mi SSW 12.7 mph - 0.00 in   Mostly Cloudy
6:53 AM 52.0 °F 46.0 °F 80% 30.11 in 10.0 mi South 8.1 mph - 0.01 in Rain Light Rain
7:53 AM 54.0 °F 45.0 °F 72% 30.13 in 10.0 mi SSW 8.1 mph - 0.00 in Rain Light Rain
8:53 AM 51.1 °F 46.9 °F 86% 30.15 in 4.0 mi South 11.5 mph - 0.04 in Rain Light Rain
9:53 AM 51.1 °F 48.9 °F 92% 30.14 in 6.0 mi South 12.7 mph - 0.03 in Rain Light Rain
10:53 AM 51.1 °F 50.0 °F 96% 30.12 in 6.0 mi South 17.3 mph - 0.03 in Rain Light Rain
12:34 PM 54.0 °F 53.1 °F 97% 30.07 in 1.5 mi South 15.0 mph - 0.03 in Rain Light Rain
12:49 PM 53.6 °F 53.6 °F 100% 30.06 in 2.0 mi South 12.7 mph - 0.06 in Rain Light Rain
12:53 PM 54.0 °F 53.1 °F 97% 30.06 in 3.0 mi South 11.5 mph - 0.07 in Rain Light Rain
1:24 PM 54.0 °F 54.0 °F 100% 30.05 in 6.0 mi South 13.8 mph - 0.01 in Rain Light Rain
1:53 PM 55.0 °F 54.0 °F 96% 30.04 in 4.0 mi SSW 12.7 mph - 0.02 in Rain Light Rain
2:39 PM 55.9 °F 55.0 °F 97% 30.03 in 8.0 mi South 12.7 mph - 0.00 in   Overcast
2:53 PM 55.9 °F 55.0 °F 97% 30.03 in 8.0 mi South 13.8 mph - 0.00 in   Overcast
3:07 PM 57.0 °F 55.0 °F 93% 30.03 in 8.0 mi South 11.5 mph - 0.00 in Rain Light Rain
3:17 PM 57.0 °F 55.9 °F 96% 30.03 in 8.0 mi South 10.4 mph - 0.00 in   Overcast
3:31 PM 57.0 °F 55.9 °F 96% 30.03 in 8.0 mi South 10.4 mph - 0.00 in   Overcast
3:40 PM 57.0 °F 55.9 °F 96% 30.03 in 9.0 mi South 12.7 mph - 0.00 in   Overcast
3:53 PM 57.0 °F 55.9 °F 96% 30.04 in 9.0 mi South 11.5 mph - 0.00 in   Overcast
4:40 PM 57.0 °F 55.9 °F 96% 30.04 in 2.5 mi South 10.4 mph - 0.01 in Rain Light Rain
4:53 PM 57.0 °F 57.0 °F 100% 30.03 in 7.0 mi South 8.1 mph - 0.01 in Rain Light Rain
5:53 PM 57.9 °F 57.0 °F 97% 30.04 in 8.0 mi South 8.1 mph - 0.01 in   Overcast
6:53 PM 57.9 °F 57.0 °F 97% 30.02 in 7.0 mi South 10.4 mph - 0.01 in Rain Light Rain
7:53 PM 57.9 °F 57.0 °F 97% 30.03 in 7.0 mi South 11.5 mph - 0.03 in Rain Light Rain
8:53 PM 57.9 °F 57.9 °F 100% 30.02 in 7.0 mi South 13.8 mph - 0.01 in Rain Light Rain
9:53 PM 59.0 °F 57.9 °F 96% 30.02 in 10.0 mi South 8.1 mph - 0.05 in   Overcast
10:53 PM 57.9 °F 57.9 °F 100% 29.97 in 8.0 mi South 9.2 mph - N/A   Overcast
11:53 PM 59.0 °F 57.9 °F 96% 29.96 in 8.0 mi South 5.8 mph - 0.00 in Rain Light Rain